Tracking 27122 objects as of 26-Mar-2023
HD Live streaming from Space Station
objects crossing your sky now

STARLINK-1700

Track STARLINK-1700 now!
10-day predictions
STARLINK-1700 is classified as:


NORAD ID: 46549
Int'l Code: 2020-070T
Perigee: 552.9 km
Apogee: 556.3 km
Inclination: 53.1 °
Period: 95.6 minutes
Semi major axis: 6925 km
RCS: Unknown
Launch date: October 6, 2020
Source: United States (US)
Launch site: AIR FORCE EASTERN TEST RANGE (AFETR)
Your satellite tracking list
Your tracking list is empty




NASA's NSSDC Master Catalog

Two Line Element Set (TLE):
1 46549U 20070T   23084.93206455  .00039493  00000-0  26609-2 0  9991
2 46549  53.0540 343.8350 0002467   2.2914 357.8085 15.06322667136756
Source of the keplerian elements: AFSPC